Notices

What's New in latest Release from April 7th, 2021:

- Updated Glossary, including Speed of Maximum Gust, and Total Hourly Precipitation

- Updated national and regional climate services offices contacts and prices information

- Addition of station inventory lists for 1981-2010, 1971-2000, and 1961-1990 Normals.

If you haven't already, please take our survey and provide feedback about our website: https://eccc.sondage-survey.ca/f/LanguageSelection.aspx?s=442ca660-fcf1-47c0-95a9-59707d6fd709

Hourly Data Report for December 02, 2020

CARBERRY CS
MANITOBA
Current Station Operator: ECCC - MSC

49°54'20.900" N
99°21'26.800" W
383.50 m
5010547
71170
WZE

Download Data

Hourly Data (December 2020)
Hourly Data Report for December 2, 2020
TIME
LST
Temp Definition
°C
Dew Point Definition
°C
Rel Hum Definition
%
Precip. Amount Definition
mm

Wind Dir Definition
10's deg

Wind Spd Definition
km/h
Visibility Definition
km
Stn Press Definition
kPa
Hmdx Definition


Wind Chill Definition


Weather Definition


00:00 0.8 -2.5 79 0.0 30 15   97.95     LegendNANA
01:00 0.5 -2.5 81 0.0 26 9   97.98     LegendNANA
02:00 0.6 -2.2 82 0.0 26 12   98.05     LegendNANA
03:00 0.7 -1.9 83 0.0 28 14   98.09     LegendNANA
04:00 1.1 -2.1 79 0.0 28 19   98.10     LegendNANA
05:00 1.0 -3.3 73 0.0 29 19   98.15     LegendNANA
06:00 0.8 -3.8 71 0.0 29 19   98.17     LegendNANA
07:00 0.7 -4.1 70 0.0 29 26   98.19     LegendNANA
08:00 -1.0 -5.2 73 0.0 29 16   98.17   -6 LegendNANA
09:00 -2.0 -5.2 79 0.0 26 14   98.19   -7 LegendNANA
10:00 -0.9 -5.0 73 0.0 27 24   98.17   -7 LegendNANA
11:00 -0.4 -5.9 66 0.0 27 24   98.19   -6 LegendNANA
12:00 0.2 -6.6 60 0.0 27 25   98.08     LegendNANA
13:00 0.8 -6.5 58 0.0 27 23   98.05     LegendNANA
14:00 1.7 -6.9 53 0.0 24 18   97.95     LegendNANA
15:00 1.9 -7.8 48 0.0 27 28   97.89     LegendNANA
16:00 1.3 -8.1 50 0.0 26 17   97.89     LegendNANA
17:00 -0.3 -7.3 59 0.0 24 10   97.81   -4 LegendNANA
18:00 -0.6 -7.1 61 0.0 25 12   97.74   -5 LegendNANA
19:00 -1.1 -7.5 62 0.0 26 19   97.66   -6 LegendNANA
20:00 -2.3 -8.1 64 0.0 26 20   97.63   -8 LegendNANA
21:00 -2.0 -8.1 63 0.0 25 23   97.57   -8 LegendNANA
22:00 -2.4 -8.2 64 0.0 26 23   97.50   -9 LegendNANA
23:00 -3.1 -8.2 68 0.0 26 19   97.45   -9 LegendNANA

Notes on Data Quality.

Legend

  • E = Estimated
  • M = Missing
  • NA = Not Available*
  • [empty] = Indicates an unobserved value
Date modified: